This demonstration page uses our WeatherBlox Daily Observations layout. Learn more.

Left ArrowRight Arrow

Hourly Observations for May 11, 2018

Temp ( °F °C ) Dew Point ( °F °C ) Humidity (%) Winds ( mph kmh ) Pressure ( in mb ) Visibility ( mi km ) Precip ( " mm )
12:53 am 00:53 Cloudy 51 10.6 49 9.4 92 92 NE 8 13 29.83 1010 10 16 N/A
1:53 am 01:53 Cloudy 48 8.9 47 8.3 96 96 E 8 13 29.85 1011 10 16 N/A
2:53 am 02:53 Cloudy 47 8.3 46 7.8 97 97 ENE 7 11 29.84 1011 10 16 N/A
3:08 am 03:08 Cloudy with Light Rain 46 8 46 8 100 100 ENE 7 11 29.83 1010 10 16 N/A
3:17 am 03:17 Cloudy 47 8.3 46 7.8 97 97 ENE 5 7 29.83 1010 10 16 N/A
3:53 am 03:53 Cloudy 47 8.3 46 7.8 97 97 NNW 6 9 29.85 1011 10 16 N/A
4:53 am 04:53 Cloudy with Light Rain 45 7.2 44 6.7 97 97 NE 12 19 29.86 1011 6 10 0.02 0.51
5:17 am 05:17 Cloudy with Light Rain 44 6.7 43 6.1 96 96 undefined N/A 29.88 1012 4 6 0.07 1.78
5:28 am 05:28 Cloudy with Rain 45 7 43 6 93 93 NE 13 20 29.91 1013 3 4 N/A
5:31 am 05:31 Cloudy with Rain 44 6.7 43 6.1 96 96 NE 12 19 29.91 1013 3 5 0.16 4.06
5:53 am 05:53 Cloudy with Light Rain 44 6.7 43 6.1 96 96 NE 14 22 29.88 1012 5 8 0.19 4.83
6:29 am 06:29 Cloudy with Rain 44 6.7 42 5.6 93 93 ENE 16 26 29.94 1014 3 4 0.07 1.78
6:34 am 06:34 Cloudy with Light Rain 45 7 43 6 93 93 ENE 13 20 29.94 1014 3 5 N/A
6:53 am 06:53 Cloudy with Light Rain 44 6.7 43 6.1 96 96 ENE 12 19 29.92 1013 6 10 0.10 2.54
7:37 am 07:37 Cloudy with Light Rain 44 6.7 43 6.1 96 96 ENE 8 13 29.97 1015 4 6 0.03 0.76
7:53 am 07:53 Cloudy with Light Rain 44 6.7 43 6.1 96 96 ENE 10 17 29.96 1015 4 6 0.05 1.27
8:53 am 08:53 Cloudy with Light Rain 44 6.7 43 6.1 96 96 ENE 8 13 29.98 1015 6 10 0.05 1.27
9:45 am 09:45 Cloudy with Light Rain 44 6.7 42 5.6 93 93 NE 13 20 30.03 1017 10 16 0.03 0.76
9:53 am 09:53 Cloudy with Light Rain 44 6.7 42 5.6 93 93 N 15 24 30.01 1016 10 16 0.03 0.76
10:04 am 10:04 Cloudy with Light Rain 43 6 41 5 93 93 NNE 14 22 30.06 1018 10 16 N/A
10:53 am 10:53 Cloudy 43 6.1 41 5 93 93 NNE 13 20 30.04 1017 10 16 N/A
11:12 am 11:12 Cloudy 43 6 41 5 93 93 NNE 15 24 30.09 1019 9 14 N/A
11:53 am 11:53 Cloudy with Mist and Fog 43 6.1 41 5 93 93 N 12 19 30.07 1018 5 8 N/A
12:15 pm 12:15 Cloudy with Mist and Fog 43 6.1 41 5 93 93 NNE 15 24 30.09 1019 3 4 N/A
12:24 pm 12:24 Cloudy with Mist and Fog 43 6 41 5 93 93 NNE 14 22 30.09 1019 4 6 N/A
12:41 pm 12:41 Cloudy with Mist and Fog 43 6.1 41 5 93 93 NNE 12 19 30.09 1019 5 8 N/A
12:53 pm 12:53 Cloudy 44 6.7 42 5.6 93 93 NNE 15 24 30.09 1019 10 16 N/A
1:42 pm 13:42 Cloudy 45 7 41 5 87 87 NNE 12 19 30.12 1020 10 16 N/A
1:53 pm 13:53 Cloudy 45 7.2 41 5 86 86 NE 12 19 30.11 1020 10 16 N/A
2:04 pm 14:04 Cloudy 45 7 41 5 87 87 NNE 10 17 30.12 1020 10 16 N/A
2:53 pm 14:53 Cloudy with Light Rain 45 7.2 41 5 86 86 NE 8 13 30.13 1020 10 16 N/A
3:53 pm 15:53 Cloudy 46 7.8 40 4.4 79 79 NNE 7 11 30.13 1020 10 16 N/A
4:53 pm 16:53 Cloudy 46 7.8 40 4.4 79 79 NNE 10 17 30.14 1021 10 16 N/A
5:53 pm 17:53 Cloudy 45 7.2 40 4.4 83 83 NNE 10 17 30.16 1021 10 16 N/A
6:53 pm 18:53 Cloudy 45 7.2 40 4.4 83 83 NNE 5 7 30.17 1022 10 16 N/A
7:53 pm 19:53 Cloudy 45 7.2 39 3.9 80 80 N 6 9 30.18 1022 10 16 N/A
8:53 pm 20:53 Cloudy 45 7.2 39 3.9 80 80 NNE 3 6 30.20 1023 10 16 N/A
9:53 pm 21:53 Cloudy 45 7.2 39 3.9 80 80 ENE 3 6 30.21 1023 10 16 N/A
10:53 pm 22:53 Cloudy 45 7.2 39 3.9 80 80 N N/A 30.22 1023 10 16 N/A
11:53 pm 23:53 Cloudy 45 7.2 39 3.9 80 80 NE 6 9 30.21 1023 10 16 N/A

Powered by AerisWeather